OBJECT C, 44881

Orbit data source: Space-Track

You're viewing an Uncataloged Satellite

Recently launched and/or uncataloged satellites may have evolving metadata. Metadata may include but not limited to: Owner, Maufacturer, Bus, Motor, and Mission.

OBJECT C, 44881 is a satellite in SSO that was launched on Fri, 20 Dec 2019 UTC via a CHANG ZHENG 4B launch vehicle from the Taiyaun Space Center, China (TSC). Unknown objects in Earth's orbit typically refer to objects detected orbiting the Earth but have not yet been identified or cataloged. These objects could be anything from previously untracked satellites, spent rocket stages, debris from satellite collisions, or even natural meteoroids temporarily captured by Earth's gravity.

Loading next visibility...
OBJECT C details
Identifier
44881, 2019-093C
Orbit
SSO
Last TLE update9 hours ago
Origin
Flag of TBDZhongda (TBD)
ManufacturerDFH Shenzhen
MissionOperational Commercial Science
Bus & MotorTIANQIN, Unknown motor
Mass35 kg wet, 35 kg dry
Launch date (UTC)
2019-12-20 (5 years ago)
Launch vehicle
CHANG ZHENG 4B
Launch site
Taiyaun Space Center, China (TSC)
Object typeUnknown
Shape & HBRBox, 0.3 m
Radar Cross Section0.105 m², Medium (>0.1 m² and < 1m²)

Expand to show TLE details & history

TLE from 9 hours ago
0 OBJECT C
1 44881U 19093C   24361.50775703  .00002758  00000-0  32983-3 0  9997
2 44881  97.8122  74.5439 0015159  56.5222 303.7439 14.84887294271577
Epoch: 2024-12-26T12:11Z
Definitive object data (Epoch: 2024-12-26T12:11:10.207Z)
Latitude-0.00006°
Longitude156.26523°
Altitude611.093 km
Speed7.557 km/s
True Right ascension04h 58m 10s
True Declination0° 00' 00"
Sunlit
Object was in full shadow at TLE epoch
Visualization TLE readout
Latitude-49.88488°
Longitude-32.6831°
Altitude643.87 km
Speed7.529 km/s
Apparent Right ascension12h 17m 49s
Apparent Declination-61° 45' 35"
Sunlit
Object is in daylight
Visualization observer readout
Local Sidereal Time20:41:18
Azimuth217.606° SW
Elevation-51.073°
Doppler factor1
Orbital elements
Apogee altitude621.565 km
Perigee altitude600.375 km
Semi-major axis6,989.107 km
Eccentricity0.0015159
Inclination97.8122°
RAAN74.5439°
Arg. of periapsis56.5222°
True anomaly303.5993°
Mean anomaly303.7439°
Eccentric anomaly303.67162°
Mean motion3.71459 °/min
BSTAR0.00032983
Orbital period96.92 mins
Loading maneuver chart data...
Loading historical data...
Loading historical data...
Loading historical data...
Loading historical data...
Loading historical data...
Loading historical data...
Loading historical data...

OBJECT C Visibility forecast

Observer location: undefined°, undefined

Span
Click to sort rows by Start time (UTC) header in descending order
Start Az.
Max El. time (UTC)
Max El. Az.
Max El.
End time (UTC)
End Az.
7 mins2024-12-27 04:29:20.652Z133.216° SE2024-12-27 04:33:20.652Z57.127° ENE27.972°2024-12-27 04:36:20.652Z9.216° NNE
4 mins2024-12-27 06:07:20.652Z237.559° WSW2024-12-27 06:09:20.652Z273.869° WNW18.02°2024-12-27 06:11:20.652Z305.617° NW
7 mins2024-12-27 17:52:20.652Z18.322° NNE2024-12-27 17:55:20.652Z89.549° E43.831°2024-12-27 17:59:20.652Z187.012° SSW
|